User: anonymous   Login
Location: PFO Observatory
(45.2937°N, 66.0991°W)
Time: 04:04:41
(UTC-03:00)
Language:

Cosmos 1151 Rocket - Orbit

View from above orbital plane
View from above orbital plane
View from above satellite
View from above satellite

Ground track
Ground track

The orbit data is extracted from the following two-line orbital elements,

1 11672U 80005B   15088.46120770  .00000663  00000-0  70137-4 0  9996
2 11672 082.5142 124.4360 0018268 125.1043 235.1890 14.87521541902852
Epoch (UTC): 29 March 2015 11:04:08
Eccentricity: 0.0018268
inclination: 82.5142°
perigee height: 593 km
apogee height: 618 km
right ascension of ascending node: 124.4360°
argument of perigee: 125.1043°
revolutions per day: 14.87521541
mean anomaly at epoch: 235.1890°
orbit number at epoch: 90285

The dashed part of the orbit path shows where the satellite is in the earth's shadow,  

DLR